Skip Page Navigation
NASA JPL Caltech
NASA Logo - Jet Propulsion Laboratory + View the NASA Portal
+ Center for Near-Earth Object Studies
JPL Home Earth Solar System Stars & Galaxies Technology
JPL Solar System Dynamics
BODIES ORBITS EPHEMERIDES TOOLS PHYSICAL DATA DISCOVERY FAQ SITE MAP
IMPORTANT: The SSD Announcement email list is now available. Major changes are coming in the near future, including possible hostname and/or URL changes. To be notified of such changes, subscribe to this email list.

Please visit this page for more details.


JPL Small-Body Database Browser
Search: [ help ]  
351114 (2003 UT393)
Classification: Main-belt Asteroid          SPK-ID: 2351114
Ephemeris | Orbit Diagram | Orbital Elements | Mission Design | Physical Parameters | Discovery Circumstances ]

[ show orbit diagram ]
Orbital Elements at Epoch 2458600.5 (2019-Apr-27.0) TDB
Reference: JPL 5 (heliocentric ecliptic J2000)
 Element Value Uncertainty (1-sigma)   Units 
e .2276585442619539 3.0454e-07  
a 2.591813266332346 1.0053e-07 au
q 2.001764831120304 8.636e-07 au
i 2.605646063771621 8.734e-06 deg
node 28.21721172823693 0.00023844 deg
peri 322.5481150228075 0.00024731 deg
M 289.3412002276093 9.1528e-05 deg
tp 2458899.635354561729
(2020-Feb-20.13535456)
0.00040459 TDB
period 1524.066754446924
4.17
8.8672e-05
2.428e-07
d
yr
n .2362101259341768 1.3743e-08 deg/d
Q 3.181861701544387 1.2342e-07 au
  Orbit Determination Parameters
   # obs. used (total)      110  
   data-arc span      5262 days (14.41 yr)  
   first obs. used      2003-10-22  
   last obs. used      2018-03-19  
   planetary ephem.      DE431  
   SB-pert. ephem.      SB431-N16  
   condition code      0  
   norm. resid. RMS      .73935  
   source      ORB  
   producer      Otto Matic  
   solution date      2019-Jul-14 05:22:18  

Additional Information
 Earth MOID = .995893 au 
 Jupiter MOID = 2.24864 au 
 T_jup = 3.381 
[ show covariance matrix ]

Ephemeris | Orbit Diagram | Orbital Elements | Mission Design | Physical Parameters | Discovery Circumstances ]

Physical Parameter Table
Parameter Symbol Value Units Sigma Reference Notes
absolute magnitude H 17.4   n/a MPO440577  

351114 (2003 UT393)          Discovered 2003-Oct-22 by Buie, M. W. at Kitt Peak
Reference: 20130127/Numbers.arcLast Updated: 2013-01-31

Alternate Designations
 2003 UT393 = 2007 RO146 
Ephemeris | Orbit Diagram | Orbital Elements | Mission Design | Physical Parameters | Discovery Circumstances ]
ABOUT SSD CREDITS/AWARDS PRIVACY/COPYRIGHT GLOSSARY LINKS
FirstGov
(server date/time)  
NASA Home Page
Site Manager:   Ryan S. Park
Webmaster  Alan B. Chamberlin